This is the latest recevied weather packets stored in our database for station/object DO0SOB-11. If no packets are shown the sender has not sent any weather packets the latest 10 day(s).
| Time | Temp. | Humidity | Pressure | Rain* | Wind** | Luminosity | Snow |
|---|---|---|---|---|---|---|---|
| 1787757755 | 20° C | 100% | 978 hPa | - | - | - | - |
| 1787756735 | 20° C | 100% | 978.2 hPa | - | - | - | - |
| 1787755715 | 18.89° C | 100% | 978.4 hPa | - | - | - | - |
| 1787754694 | 19.44° C | 100% | 978.5 hPa | - | - | - | - |
| 1787753674 | 18.89° C | 100% | 978.5 hPa | - | - | - | - |
| 1787752654 | 18.33° C | 100% | 978.5 hPa | - | - | - | - |
| 1787751634 | 18.33° C | 100% | 978.7 hPa | - | - | - | - |
| 1787750614 | 18.33° C | 100% | 978.8 hPa | - | - | - | - |
| 1787749594 | 18.33° C | 100% | 978.8 hPa | - | - | - | - |
| 1787748574 | 18.33° C | 100% | 978.8 hPa | - | - | - | - |
| 1787747554 | 17.78° C | 100% | 978.9 hPa | - | - | - | - |
| 1787746534 | 17.22° C | 100% | 979 hPa | - | - | - | - |
| 1787745514 | 17.22° C | 100% | 979.1 hPa | - | - | - | - |
| 1787744494 | 17.22° C | 100% | 979 hPa | - | - | - | - |
| 1787743474 | 17.22° C | 100% | 979 hPa | - | - | - | - |
| 1787742453 | 16.67° C | 100% | 979.1 hPa | - | - | - | - |
| 1787741433 | 17.22° C | 100% | 979 hPa | - | - | - | - |
| 1787740413 | 17.22° C | 100% | 979.1 hPa | - | - | - | - |
| 1787739393 | 16.67° C | 100% | 979.1 hPa | - | - | - | - |
| 1787738373 | 16.67° C | 100% | 979 hPa | - | - | - | - |
| 1787737353 | 16.67° C | 100% | 979.1 hPa | - | - | - | - |
| 1787736333 | 16.67° C | 100% | 979 hPa | - | - | - | - |
| 1787735313 | 16.67° C | 100% | 978.8 hPa | - | - | - | - |
| 1787734293 | 17.22° C | 100% | 978.8 hPa | - | - | - | - |
| 1787733273 | 16.11° C | 100% | 978.9 hPa | - | - | - | - |
* Rain since midnight (hover to see other rain measurements)
** Current wind speed in m/s (hover to see current wind gust speed)